{"data":{"norad_id":50837,"intl_designator":"2022-001AL","name":"STARLINK-3318","alt_names":[],"object_type":"PAYLOAD","status":"ACTIVE","operator":null,"country":"US","launch_date":"2022-01-06","launch_site_code":"AFETR","launch_vehicle":null,"mission":null,"orbit_class":"UNKNOWN","rcs_meters":null,"size_class":null,"mass_kg":null,"dimensions":null,"purposes":["comms"],"wikipedia_slug":null,"has_3d_model":false,"image_url":null,"decayed_at":null,"tle_current":{"epoch":"2026-09-19T23:38:29.590080Z","epoch_age_seconds":92767,"freshness":"FRESH","line1":"1 50837U 22001AL  26262.98506470  .00001652  00000+0  60034-4 0  9995","line2":"2 50837  53.1620   4.0079 0001333  85.0695 275.0459 15.34388559259914","mean_motion":15.34388559,"eccentricity":0.0001333,"inclination_deg":53.162,"raan_deg":4.0079,"arg_perigee_deg":85.0695,"mean_anomaly_deg":275.0459,"bstar":6.0034e-5,"rev_number":25991,"period_min":93.84845784685,"perigee_km":461.82535694456,"apogee_km":463.6491340184,"semimajor_km":6840.8742454815,"source":"CELESTRAK","updated_at":"2026-09-20T09:00:39.581242Z"}}}